Погода в Найхине

Россия / Хабаровский край     49°16′52″N   136°27′43″E
темп.,
°C
ветер,
м/с
пор.,
м/с
влажн.,
%
обл.,
%
осадки,
мм/ч
давл.,
гПа
погр.,
м
25 июля, вс
вс2501:00+24ю3577100 0.0 100681
04:00+23ю3581100 0.0 100670
07:00+24ю25821 0.0 1006133
10:00+29ююз3659100 0.0 1006525
13:00+33юз5741100 0.0 10041622
16:00+33зюз5742100 0.0 10041372
19:00+30зюз3660100 0.0 1003131
22:00+26юз2271100 0.0 100420
26 июля, пн
пн2601:00+25ю2276100 0.3 100421
04:00+23ююз2381100 0.3 100549
07:00+23ю2487100 0.5 1005103
10:00+27ююз366934 0.8 1004476
13:00+32юз4644100 0.0 10031240
16:00+32зюз5744100 0.0 1002957
19:00+28сз2364100 0.0 100254
22:00+24вюв2277100 0.1 100232
27 июля, вт
вт2701:00+22ссв1185100 0.1 100311
04:00+21в1191100 0.1 100211
07:00+22ю0187100 0.0 100368
10:00+26зсз1269100 0.0 1004428
13:00+26ссз3370100 0.3 1003388
16:00+28с4466100 0.7 1003506
19:00+25ссв597574 0.0 1002298
22:00+22св4108273 0.0 1003225
28 июля, ср
ср2801:00+20ссв41093100 0.4 1003185
04:00+19ссв3996100 0.4 1003168
07:00+20ссв3691100 0.0 1003168
10:00+25ссв337151 0.0 1002403
13:00+28с326014 0.0 1001669
16:00+29ссз32555 0.0 999703
19:00+28св356614 0.0 999203
22:00+24в3681100 0.0 999100
29 июля, чт
чт2901:00+22ссв239119 0.0 99855
04:00+20св2296100 0.0 99816
07:00+22ссв118926 0.0 99862
10:00+25зсз1174100 0.0 998361
13:00+29зсз136273 0.0 997555
16:00+30сз1357100 1.0 995674
19:00+23ю2398100 2.5 99548
22:00+22ююз51297100 3.9 996369